Flag for Germany Weather past 2 weeks in Aschersleben, Saxony-Anhalt, Germany

Now
52 °F

Overcast.


Feels Like: 49 °F
Forecast: 49 / 51 °F
Wind: 9 mph from West

Location: Magdeburg

Current Time: Dec 22, 2014 at 12:28:28 PM

Latest Report: Dec 22, 2014 at 12:00 PM


Visibility: 38 mi

Pressure: 29.88 "Hg

Humidity: 73%

Dew point: 44 °F

Location of AscherslebenLocation

Historic Weather in Aschersleben — Graph

°F

Aschersleben temperature yesterday

Maximum temperature yesterday: 46 °F (at 11:00 PM)
Minimum temperature yesterday: 40 °F (at 9:00 AM)
Average temperature yesterday: 43 °F

Past Weeks' High & Low Weather Summary

 TemperatureHumidityPressure
High56 °F (Dec 18, 11:00 PM)97% (Dec 17, 7:00 PM)30.38 "Hg (Dec 17, 7:00 PM)
Low28 °F (Dec 15, 3:00 AM)64% (Dec 20, 11:00 AM)29.38 "Hg (Dec 12, 5:00 PM)
Average41 °F83%29.91 "Hg
* Reported Dec 7 11:00 AM — Dec 22 11:00 AM, Aschersleben, Weather by CustomWeather, © 2014

Note: Actual official high and low records may vary slightly from our data, if they occured in-between our weather recording intervals... More about our weather records

Advertising

Aschersleben weather history for previous 24 hours

 ConditionsComfort  
Time TempWeatherWind HumidityBarometerVisibility
11:00 AM
Dec 22
51 °FOvercast.9 mph74%29.89 "Hg43 mi
9:00 AM50 °FOvercast.9 mph78%29.91 "Hg31 mi
8:00 AM49 °FOvercast.8 mph84%29.91 "Hg7 mi
7:00 AM50 °FOvercast.8 mph78%29.92 "Hg37 mi
6:00 AM49 °FOvercast.7 mph78%29.92 "Hg37 mi
5:00 AM49 °FOvercast.8 mph80%29.92 "Hg43 mi
3:00 AM48 °FOvercast.7 mph79%29.97 "Hg43 mi
2:00 AM48 °FOvercast.8 mph79%29.97 "Hg40 mi
1:00 AM47 °FOvercast.9 mph78%30.00 "Hg43 mi
12:00 AM47 °FOvercast.7 mph79%30.02 "Hg43 mi
11:00 PM
Dec 21
46 °FOvercast.7 mph80%30.05 "Hg43 mi
9:00 PM44 °FOvercast.5 mph82%30.11 "Hg43 mi
8:00 PM43 °FOvercast.3 mph86%30.14 "Hg22 mi
7:00 PM44 °FOvercast.6 mph81%30.15 "Hg43 mi
6:00 PM44 °FOvercast.6 mph77%30.17 "Hg40 mi
5:00 PM44 °FOvercast.5 mph76%30.19 "Hg31 mi
3:00 PM45 °FOvercast.6 mph75%30.23 "Hg28 mi
2:00 PM45 °FOvercast.6 mph73%30.25 "Hg19 mi
1:00 PM45 °FOvercast.6 mph75%30.27 "Hg12 mi
12:00 PM43 °FOvercast.6 mph79%30.28 "Hg12 mi
Weather by CustomWeather, © 2014

See weather overviewHow to use our weather pages